Location: Newark
(55.8871°S, 37.4681°W)
Time: 00:17:24
(UTC+00:00)

N. Korean satellite - Pass Details

Date: 18 October 2019
Orbit: 456 x 506 km, 97.2° (Epoch: 21 November)

Event Time Altitude Azimuth Distance (km) Brightness Sun altitude
Rises 06:05:52 0° 55° (NE) 2,632 10.6 -9.1°
Reaches altitude 10° 06:08:19 10° 71° (ENE) 1,751 10.0 -8.8°
Maximum altitude 06:11:11 21° 120° (ESE) 1,215 9.8 -8.5°
Drops below altitude 10° 06:14:03 10° 169° (S) 1,756 10.0 -8.2°
Sets 06:16:30 0° 185° (S) 2,642 10.7 -7.9°
